| time (UTC) | temp F | wind direction | speed MPH | gust MPH | rain 1hr in | rain 24hr in | rain mn in | humidity % | barometer mb |
| 20260506153005 | 78 | 89 | 4.0 | 6.0 | 0.00 | 0.00 | 0.00 | 84 | 1010.7 |
| 20260506143026 | 77 | 161 | 2.0 | 6.0 | 0.00 | 0.00 | 0.00 | 86 | 1010.3 |
| 20260506141506 | 76 | 98 | 1.0 | 4.0 | 0.00 | 0.00 | 0.00 | 87 | 1009.9 |
| 20260506140013 | 76 | 173 | 2.0 | 7.0 | 0.00 | 0.00 | 0.00 | 87 | 1009.8 |
| 20260506134515 | 76 | 128 | 0.0 | 4.0 | 0.00 | 0.00 | 0.00 | 88 | 1009.8 |
| 20260506133018 | 75 | 120 | 2.0 | 6.0 | 0.00 | 0.00 | 0.00 | 88 | 1009.9 |
| 20260506131522 | 75 | 99 | 3.0 | 6.0 | 0.00 | 0.00 | 0.00 | 89 | 1009.9 |
| 20260506130007 | 75 | 113 | 1.0 | 4.0 | 0.00 | 0.00 | 0.00 | 89 | 1009.9 |
| 20260506124512 | 74 | 162 | 1.0 | 3.0 | 0.00 | 0.00 | 0.00 | 90 | 1009.9 |
| 20260506123017 | 74 | 146 | 0.0 | 2.0 | 0.00 | 0.00 | 0.00 | 90 | 1009.9 |
| 20260506121518 | 74 | 153 | 0.0 | 1.0 | 0.00 | 0.00 | 0.00 | 90 | 1009.7 |
| 20260506120023 | 74 | 162 | 0.0 | 5.0 | 0.00 | 0.00 | 0.00 | 89 | 1009.5 |
| 20260506114512 | 74 | 181 | 1.0 | 5.0 | 0.00 | 0.00 | 0.00 | 89 | 1009.4 |
| 20260506113017 | 74 | 216 | 3.0 | 7.0 | 0.00 | 0.00 | 0.00 | 89 | 1009.2 |
| 20260506111517 | 74 | 137 | 3.0 | 7.0 | 0.00 | 0.00 | 0.00 | 89 | 1009.2 |
| 20260506110026 | 74 | 158 | 2.0 | 8.0 | 0.00 | 0.00 | 0.00 | 89 | 1009.1 |
| 20260506104525 | 74 | 231 | 4.0 | 10.0 | 0.00 | 0.00 | 0.00 | 89 | 1008.8 |
| 20260506103014 | 75 | 135 | 3.0 | 13.0 | 0.00 | 0.00 | 0.00 | 89 | 1008.5 |
| 20260506101519 | 75 | 129 | 4.0 | 13.0 | 0.00 | 0.00 | 0.00 | 89 | 1008.3 |
| 20260506100018 | 75 | 93 | 2.0 | 10.0 | 0.00 | 0.00 | 0.00 | 89 | 1008.3 |
| 20260506094506 | 75 | 132 | 4.0 | 10.0 | 0.00 | 0.00 | 0.00 | 89 | 1008.4 |
| 20260506093009 | 74 | 177 | 5.0 | 11.0 | 0.00 | 0.00 | 0.00 | 89 | 1008.3 |
| 20260506091516 | 74 | 270 | 4.0 | 10.0 | 0.00 | 0.00 | 0.00 | 89 | 1008.4 |
| 20260506090023 | 74 | 159 | 3.0 | 9.0 | 0.00 | 0.00 | 0.00 | 89 | 1008.3 |
| 20260506084521 | 74 | 147 | 5.0 | 12.0 | 0.00 | 0.00 | 0.00 | 89 | 1008.4 |
| 20260506083004 | 75 | 210 | 6.0 | 11.0 | 0.00 | 0.00 | 0.00 | 88 | 1008.5 |
| 20260506081512 | 75 | 141 | 5.0 | 13.0 | 0.00 | 0.00 | 0.00 | 88 | 1008.5 |
| 20260506073022 | 75 | 161 | 5.0 | 11.0 | 0.00 | 0.00 | 0.00 | 88 | 1009.0 |
| 20260506071508 | 75 | 216 | 5.0 | 12.0 | 0.00 | 0.00 | 0.00 | 88 | 1009.2 |
| 20260506061531 | 75 | 123 | 2.0 | 8.0 | 0.00 | 0.00 | 0.00 | 87 | 1009.5 |
| 20260506044511 | 76 | 233 | 4.0 | 8.0 | 0.00 | 0.00 | 0.00 | 86 | 1009.5 |
| 20260506043015 | 76 | 130 | 3.0 | 11.0 | 0.00 | 0.00 | 0.00 | 86 | 1009.3 |
| 20260506041519 | 76 | 214 | 3.0 | 11.0 | 0.00 | 0.00 | 0.00 | 86 | 1009.2 |
| 20260506040047 | 76 | 172 | 7.0 | 15.0 | 0.00 | 0.00 | 0.00 | 85 | 1009.0 |
| 20260506034524 | 76 | 219 | 5.0 | 12.0 | 0.00 | 0.00 | 0.00 | 85 | 1009.2 |
| 20260506033011 | 76 | 127 | 5.0 | 11.0 | 0.00 | 0.00 | 0.00 | 85 | 1009.0 |
| 20260506031533 | 77 | 179 | 2.0 | 10.0 | 0.00 | 0.00 | 0.00 | 85 | 1008.9 |
| 20260506030020 | 77 | 190 | 4.0 | 13.0 | 0.00 | 0.00 | 0.00 | 85 | 1008.7 |
| 20260506024526 | 77 | 207 | 3.0 | 13.0 | 0.00 | 0.00 | 0.00 | 84 | 1008.6 |
| 20260506023027 | 77 | 143 | 6.0 | 13.0 | 0.00 | 0.00 | 0.00 | 84 | 1008.3 |
| 20260506021514 | 77 | 191 | 7.0 | 13.0 | 0.00 | 0.00 | 0.00 | 84 | 1008.2 |
| 20260506020018 | 77 | 171 | 7.0 | 11.0 | 0.00 | 0.00 | 0.00 | 84 | 1008.1 |
| 20260506014524 | 77 | 136 | 5.0 | 12.0 | 0.00 | 0.00 | 0.00 | 84 | 1007.8 |
| 20260506013025 | 77 | 146 | 5.0 | 10.0 | 0.00 | 0.00 | 0.00 | 83 | 1007.5 |
| 20260506011527 | 78 | 210 | 4.0 | 10.0 | 0.00 | 0.00 | 0.00 | 83 | 1007.6 |
| 20260506010013 | 78 | 208 | 6.0 | 11.0 | 0.00 | 0.00 | 0.00 | 82 | 1007.4 |
| 20260506004525 | 78 | 152 | 7.0 | 14.0 | 0.00 | 0.00 | 0.00 | 82 | 1007.1 |
| 20260506003003 | 78 | 192 | 4.0 | 8.0 | 0.00 | 0.00 | 0.00 | 81 | 1007.1 |
| 20260506001501 | 79 | 136 | 5.0 | 14.0 | 0.00 | 0.00 | 0.00 | 80 | 1007.1 |
| 20260506000004 | 79 | 108 | 7.0 | 14.0 | 0.00 | 0.00 | 0.00 | 80 | 1006.9 |
| 20260505234504 | 80 | 152 | 7.0 | 15.0 | 0.00 | 0.00 | 0.00 | 80 | 1006.7 |
| 20260505233001 | 80 | 134 | 8.0 | 18.0 | 0.00 | 0.00 | 0.00 | 79 | 1006.8 |
| 20260505231500 | 80 | 125 | 7.0 | 14.0 | 0.00 | 0.00 | 0.00 | 79 | 1006.7 |
| 20260505230004 | 81 | 167 | 6.0 | 20.0 | 0.00 | 0.00 | 0.00 | 78 | 1006.7 |
| 20260505224503 | 81 | 207 | 6.0 | 14.0 | 0.00 | 0.00 | 0.00 | 78 | 1006.7 |
| 20260505223004 | 81 | 57 | 10.0 | 20.0 | 0.00 | 0.00 | 0.00 | 77 | 1006.8 |
| 20260505221507 | 82 | 156 | 9.0 | 18.0 | 0.00 | 0.00 | 0.00 | 76 | 1006.7 |
| 20260505220006 | 82 | 198 | 7.0 | 18.0 | 0.00 | 0.00 | 0.00 | 76 | 1006.8 |
| 20260505214506 | 82 | 51 | 9.0 | 19.0 | 0.00 | 0.00 | 0.00 | 75 | 1006.9 |
| 20260505213006 | 83 | 106 | 8.0 | 16.0 | 0.00 | 0.00 | 0.00 | 76 | 1007.2 |
| 20260505211504 | 83 | 226 | 10.0 | 19.0 | 0.00 | 0.00 | 0.00 | 75 | 1007.5 |
| 20260505210006 | 83 | 164 | 9.0 | 15.0 | 0.00 | 0.00 | 0.00 | 74 | 1007.5 |
| 20260505204505 | 82 | 144 | 11.0 | 18.0 | 0.00 | 0.00 | 0.00 | 77 | 1007.7 |
| 20260505203005 | 82 | 145 | 9.0 | 18.0 | 0.00 | 0.00 | 0.00 | 75 | 1008.0 |
| 20260505201507 | 83 | 128 | 5.0 | 18.0 | 0.00 | 0.00 | 0.00 | 76 | 1008.2 |
| 20260505200013 | 83 | 105 | 10.0 | 18.0 | 0.00 | 0.00 | 0.00 | 75 | 1008.3 |
| 20260505194506 | 83 | 181 | 6.0 | 15.0 | 0.00 | 0.00 | 0.00 | 75 | 1008.6 |
| 20260505193008 | 82 | 184 | 6.0 | 21.0 | 0.00 | 0.00 | 0.00 | 77 | 1008.8 |
| 20260505191507 | 81 | 153 | 10.0 | 17.0 | 0.00 | 0.00 | 0.00 | 78 | 1008.9 |
| 20260505190005 | 81 | 179 | 7.0 | 15.0 | 0.00 | 0.00 | 0.00 | 78 | 1009.0 |
| 20260505184506 | 82 | 208 | 6.0 | 12.0 | 0.00 | 0.00 | 0.00 | 77 | 1009.0 |
| 20260505183007 | 80 | 136 | 6.0 | 12.0 | 0.00 | 0.00 | 0.00 | 79 | 1009.1 |
| 20260505181508 | 80 | 153 | 8.0 | 16.0 | 0.00 | 0.00 | 0.00 | 80 | 1009.2 |
| 20260505180009 | 80 | 240 | 6.0 | 12.0 | 0.00 | 0.00 | 0.00 | 79 | 1009.2 |
| 20260505174505 | 81 | 160 | 6.0 | 13.0 | 0.00 | 0.00 | 0.00 | 79 | 1009.4 |
| 20260505170014 | 80 | 259 | 3.0 | 11.0 | 0.00 | 0.00 | 0.00 | 81 | 1009.8 |
| 20260505164505 | 79 | 228 | 4.0 | 12.0 | 0.00 | 0.00 | 0.00 | 82 | 1009.9 |
| 20260505163009 | 78 | 118 | 4.0 | 12.0 | 0.00 | 0.00 | 0.00 | 84 | 1009.8 |
| 20260505161509 | 77 | 264 | 6.0 | 14.0 | 0.00 | 0.00 | 0.00 | 83 | 1009.9 |